Flag for Germany Past Weather in Geislingen an der Steige, Baden-Württemberg, Germany — Yesterday and Last 2 Weeks

Now
32 °F

Fog.


Feels Like: 32 °F
Forecast: 36 / 50 °F
Wind: 2 mph from Northeast

Location: Laupheim Airport

Current Time: Apr 30, 2017 at 7:19:50 am

Latest Report: Apr 30, 2017 at 6:20 am


Visibility: 5 mi

Pressure: 29.95 "Hg

Humidity: 93%

Dew Point: 30 °F

Location of Geislingen an der SteigeLocation

Past Weather in Geislingen an der Steige — Graph

°F

Geislingen an der Steige Temperature Yesterday

Maximum temperature yesterday: 54 °F (at 3:20 pm)
Minimum temperature yesterday: 34 °F (at 3:20 am)
Average temperature yesterday: 43 °F

High & Low Weather Summary for the Past Weeks

 TemperatureHumidityPressure
High63 °F (Apr 24, 5:20 pm)100% (Apr 18, 2:58 am)30.51 "Hg (Apr 18, 2:58 am)
Low27 °F (Apr 20, 4:20 am)33% (Apr 21, 4:20 pm)29.74 "Hg (Apr 25, 4:20 am)
Average39 °F76%30.09 "Hg
* Reported Apr 15 5:20 am — Apr 30 5:20 am, Geislingen an der Steige, Weather by CustomWeather, © 2017

Note: Actual official high and low records may vary slightly from our data, if they occured in-between our weather recording intervals... More about our weather records

Advertising

Geislingen an der Steige Weather History for the Previous 24 Hours

Scroll right to see more
 ConditionsComfort  
Time TempWeatherWind HumidityBarometerVisibility
5:20 am
Sun, Apr 30
32 °FFog.5 mph87%29.95 "HgN/A
4:20 am34 °FChilly.3 mph87%29.95 "HgN/A
3:20 am34 °FChilly.2 mph87%29.98 "HgN/A
2:20 am39 °FChilly.5 mph70%29.98 "HgN/A
1:20 am41 °FQuite cool.7 mph66%29.98 "HgN/A
12:20 am41 °FQuite cool.8 mph66%29.98 "HgN/A
11:20 pm
Sat, Apr 29
43 °FQuite cool.6 mph61%30.01 "HgN/A
10:20 pm43 °FQuite cool.5 mph61%30.01 "HgN/A
9:20 pm45 °FPassing clouds.5 mph57%30.01 "HgN/A
8:20 pm48 °FPassing clouds.5 mph50%30.01 "HgN/A
7:20 pm52 °FScattered clouds.5 mph44%30.01 "HgN/A
6:20 pm52 °FPartly sunny.6 mph44%30.01 "HgN/A
5:20 pm52 °FPartly sunny.5 mph41%30.01 "HgN/A
4:20 pm54 °FPartly sunny.7 mph41%30.01 "HgN/A
3:20 pm54 °FPartly sunny.6 mph41%30.04 "HgN/A
2:20 pm52 °FScattered clouds.6 mph44%30.04 "HgN/A
1:20 pm50 °FScattered clouds.7 mph50%30.04 "HgN/A
12:20 pm48 °FScattered clouds.6 mph58%30.07 "HgN/A
11:20 am46 °FPassing clouds.6 mph66%30.07 "HgN/A
10:20 am43 °FPassing clouds.8 mph76%30.07 "HgN/A
9:20 am37 °FPartly sunny.7 mph87%30.07 "Hg6 mi
8:46 am37 °FLight rain. Fog.7 mph87%30.07 "Hg3 mi
8:20 am36 °FLight rain. Fog.8 mph93%30.07 "Hg2 mi
7:20 am36 °FLight rain. Fog.2 mph93%30.07 "Hg2 mi
Weather by CustomWeather, © 2017

See weather overviewHow to use our weather pages